Orbital Elements at Epoch 2459000.5 (2020-May-31.0) TDB
Reference: JPL 24 (heliocentric ecliptic J2000)
Element | Value | Uncertainty (1-sigma) | Units |
e | .2571404249844464 | 3.793e-08 | |
a | 2.347263637436772 | 6.822e-09 | au |
q | 1.743687268155743 | 8.7381e-08 | au |
i | 4.856286288396315 | 4.0161e-06 | deg |
node | 63.0169224652559 | 5.4302e-05 | deg |
peri | 241.8046231453122 | 5.545e-05 | deg |
M | 10.62056472722554 | 1.1511e-05 | deg |
tp | 2458961.748694096508 (2020-Apr-22.24869410) | 4.1959e-05 | TDB |
period | 1313.533741712944 3.60 | 5.7264e-06 1.568e-08 | d yr |
n | .2740698533792773 | 1.1948e-09 | deg/d |
Q | 2.950840006717801 | 8.5762e-09 | au |
|
| | Orbit Determination Parameters
Additional Information
|